Location: Unspecified
(0.0000°N, 0.0000°E)
Time: 10:14:10
(UTC+00:00)

A-11 Canister half - Pass Details

Date: 02 August 2021
Orbit: 1515 x 1685 km, 47.2° (Epoch: 27 September)

Event Time Altitude Azimuth Distance (km) Brightness Sun altitude
Rises 22:51:58 0° 353° (N) 4,924 11.9 -64.7°
Enters shadow 22:54:46 - 4° (N) 4,380 11.6 -65.2°
Reaches altitude 10° 22:57:46 10° 18° (NNE) 3,934 - -65.7°
Maximum altitude 23:02:03 13° 44° (NE) 3,664 - -66.4°
Drops below altitude 10° 23:06:17 10° 70° (ENE) 3,910 - -67.1°
Sets 23:11:55 0° 95° (E) 4,871 - -68.0°
